Change the Weather History Date:

Wednesday, March 28, 2012

  Actual Average Record
Temperature  
Mean Temperature 84 °F -  
Max Temperature 97 °F - - ()
Min Temperature 72 °F - - ()
Cooling Degree Days 20    
Growing Degree Days 34 (Base 50)    
Moisture  
Dew Point 42 °F    
Average Humidity 20    
Maximum Humidity 37    
Minimum Humidity 7    
Precipitation  
Precipitation 0.00 in - - ()
Sea Level Pressure  
Sea Level Pressure 29.97 in    
Wind  
Wind Speed 5 mph ()    
Max Wind Speed 9 mph    
Max Gust Speed -    
Visibility 2.1 miles    
Events      
T = Trace of Precipitation, MM = Missing Value Source: Averaged Metar Reports

Daily Weather History Graph

Daily Weather History Graph

Search for Another Location

Airport or City:

Trip Planner

Search our weather history database for the weather conditions in past years. The results will help you decide how hot, cold, wet, or windy it might be!

Date:

Astronomy

Mar. 28, 2012 Rise Set
Actual Time 6:21 AM IST 6:42 PM IST
Civil Twilight 5:58 AM IST 7:05 PM IST
Nautical Twilight 5:31 AM IST 7:32 PM IST
Astronomical Twilight 5:04 AM IST 7:59 PM IST
Moon 9:44 AM IST (3/28) 11:44 PM IST (3/28)
Length of Visible Light 13h 06m
Length of Day
12h 20m
Waxing Crescent, 26% of the Moon is Illuminated
Mar 28
Waxing Crescent
Mar 31
First Quarter
Apr 7
Full
Apr 13
Last Quarter
Apr 21
New

Hourly Weather History & Observations

Time (IST) Temp. Dew Point Humidity Pressure Visibility Wind Dir Wind Speed Gust Speed Precip Events Conditions
12:00 AM 80.6 °F 51.8 °F 37% 29.98 in 1.9 mi ENE 8.1 mph - N/A   Haze
1:00 AM 78.8 °F 48.2 °F 34% 29.98 in 1.9 mi NNE 4.6 mph - N/A   Haze
2:00 AM 78.8 °F 44.6 °F 30% 29.95 in 1.9 mi ENE 6.9 mph - N/A   Haze
2:30 AM 79 °F 50 °F 25% 29.88 in 1 mi East 4.6 mph - -   Haze
5:00 AM 77.0 °F 35.6 °F 22% 29.95 in 1.9 mi NE 4.6 mph - N/A   Haze
5:30 AM 78 °F 35 °F 12% 29.88 in 1 mi NE 4.6 mph - -   Haze
7:00 AM 71.6 °F 35.6 °F 27% 29.98 in 1.9 mi Calm Calm - N/A   Haze
8:00 AM 80.6 °F 35.6 °F 20% 30.04 in 1.9 mi Calm Calm - N/A   Haze
8:30 AM 84 °F 34 °F 9% 29.95 in 1 mi ENE 4.6 mph - -   Haze
9:00 AM 84.2 °F 30.2 °F 14% 30.04 in 2.5 mi East 6.9 mph - N/A   Haze
10:00 AM 87.8 °F 33.8 °F 15% 30.06 in 2.5 mi East 8.1 mph - N/A   Haze
11:30 AM 92 °F 35 °F 7% 29.96 in 2 mi ENE 6.9 mph - -   Haze
12:00 PM 91.4 °F 41.0 °F 17% 30.04 in 3.1 mi ESE 6.9 mph - N/A   Haze
1:00 PM 93.2 °F 41.0 °F 16% 30.04 in 3.1 mi Variable 2.3 mph - N/A   Haze
2:00 PM 93.2 °F 41.0 °F 16% 30.01 in 3.1 mi Variable 3.5 mph - N/A   Haze
2:30 PM 95 °F 40 °F 8% 29.90 in 2 mi Calm Calm - -   Haze
3:00 PM 95.0 °F 42.8 °F 16% 29.98 in 3.1 mi South 4.6 mph - N/A   Haze
4:00 PM 93.2 °F 42.8 °F 17% 29.95 in 3.1 mi East 5.8 mph - N/A   Haze
5:00 PM 93.2 °F 44.6 °F 19% 29.95 in 3.1 mi Variable 6.9 mph - N/A   Haze
5:30 PM 93 °F 44 °F 10% 29.88 in 2 mi NNE 6.9 mph - -   Haze
6:00 PM 91.4 °F 44.6 °F 20% 29.98 in 2.5 mi Variable 4.6 mph - N/A   Haze
7:00 PM 89.6 °F 46.4 °F 22% 29.98 in 2.2 mi Variable 2.3 mph - N/A   Haze
8:00 PM 87.8 °F 46.4 °F 24% 29.98 in 2.2 mi NE 4.6 mph - N/A   Haze
8:30 PM 83 °F 47 °F 19% 29.92 in 1 mi East 6.9 mph - -   Haze
9:00 PM 86.0 °F 48.2 °F 27% 30.01 in 2.2 mi NE 6.9 mph - N/A   Haze
11:00 PM 82.4 °F 46.4 °F 28% 30.01 in 2.2 mi NNE 9.2 mph - N/A   Haze
11:30 PM 82 °F 47 °F 20% 29.94 in 1 mi NE 9.2 mph - -   Haze